FW8778 Weather Reports


Display with metric or nautical units.
time (UTC)temp
F
wind
direction
speed
MPH
gust
MPH
rain 1hr
in
rain 24hr
in
rain mn
in
humidity
%
barometer
mb
20220520070018 68 359 0.0 0.0 0.00 0.00 0.00 35 1027.7
20220520064504 67 359 0.0 0.0 0.00 0.00 0.00 35 1027.7
20220520063002 67 359 0.0 0.0 0.00 0.00 0.00 35 1027.5
20220520061557 64 359 0.0 0.0 0.00 0.00 0.00 36 1027.4
20220520060106 62 359 0.0 0.0 0.00 0.00 0.00 40 1027.3
20220520054551 60 359 0.0 0.0 0.00 0.00 0.00 41 1027.3
20220520053047 59 359 0.0 0.0 0.00 0.00 0.00 41 1027.2
20220520051544 58 359 0.0 0.0 0.00 0.00 0.00 42 1027.2
20220520050042 57 359 0.0 0.0 0.00 0.00 0.00 42 1027.1
20220520044540 56 359 0.0 0.0 0.00 0.00 0.00 42 1027.0
20220520043056 55 359 0.0 0.0 0.00 0.00 0.00 42 1026.9
20220520041541 55 359 0.0 0.0 0.00 0.00 0.00 41 1026.8
20220520040036 55 359 0.0 0.0 0.00 0.00 0.00 41 1026.7
20220520034536 55 359 0.0 0.0 0.00 0.00 0.00 39 1026.5
20220520033034 55 359 0.0 0.0 0.00 0.00 0.00 38 1026.5
20220520031533 54 359 0.0 1.0 0.00 0.00 0.00 39 1026.3
20220520030032 55 359 0.0 0.0 0.00 0.00 0.00 39 1026.2
20220520024532 55 359 0.0 1.0 0.00 0.00 0.00 38 1026.2
20220520023031 55 359 0.0 1.0 0.00 0.00 0.00 38 1026.2
20220520021530 55 359 0.0 0.0 0.00 0.00 0.00 38 1026.1
20220520020043 55 359 0.0 0.0 0.00 0.00 0.00 37 1026.1
20220520014529 55 359 0.0 0.0 0.00 0.00 0.00 37 1026.3
20220520013029 55 359 0.0 0.0 0.00 0.00 0.00 37 1026.2
20220520011528 55 359 0.0 0.0 0.00 0.00 0.00 38 1026.4
20220520010034 55 359 0.0 0.0 0.00 0.00 0.00 38 1026.4
20220520004525 56 359 0.0 0.0 0.00 0.00 0.00 36 1026.4
20220520003025 55 359 0.0 0.0 0.00 0.00 0.00 36 1026.2
20220520001525 56 359 0.0 0.0 0.00 0.00 0.00 36 1026.1
20220520000023 55 359 0.0 0.0 0.00 0.00 0.00 36 1026.2
20220519234523 55 359 0.0 0.0 0.00 0.00 0.00 36 1026.2
20220519233021 55 359 0.0 1.0 0.00 0.00 0.00 37 1026.2
20220519231520 56 359 0.0 0.0 0.00 0.00 0.00 36 1026.3
20220519230020 55 359 0.0 1.0 0.00 0.00 0.00 35 1026.4
20220519224520 55 359 0.0 2.0 0.00 0.00 0.00 38 1026.3
20220519223020 56 359 0.0 1.0 0.00 0.00 0.00 37 1026.4
20220519221517 56 359 0.0 0.0 0.00 0.00 0.00 39 1026.4
20220519220018 55 359 0.0 0.0 0.00 0.00 0.00 44 1026.3
20220519214512 56 359 0.0 0.0 0.00 0.00 0.00 47 1026.2
20220519213011 56 359 0.0 0.0 0.00 0.00 0.00 43 1026.1
20220519211509 57 359 0.0 0.0 0.00 0.00 0.00 45 1026.0
20220519210013 57 359 0.0 0.0 0.00 0.00 0.00 44 1026.0
20220519204506 57 359 0.0 0.0 0.00 0.00 0.00 45 1025.9
20220519203005 58 359 0.0 0.0 0.00 0.00 0.00 45 1025.7
20220519201503 57 359 0.0 0.0 0.00 0.00 0.00 61 1025.7
20220519200003 57 359 0.0 0.0 0.00 0.00 0.00 62 1025.7
20220519194503 58 359 0.0 0.0 0.00 0.00 0.00 74 1025.6
20220519193103 58 359 0.0 0.0 0.00 0.00 0.00 78 1025.4
20220519191601 58 359 0.0 0.0 0.00 0.00 0.00 77 1025.3
20220519190101 59 359 0.0 0.0 0.00 0.00 0.00 76 1025.3
20220519184600 59 359 0.0 0.0 0.00 0.00 0.00 76 1025.1
20220519183052 60 359 0.0 0.0 0.00 0.00 0.00 74 1025.2
20220519181552 60 359 0.0 0.0 0.00 0.00 0.00 74 1025.1
20220519180048 61 359 0.0 0.0 0.00 0.00 0.00 72 1025.1
20220519174545 62 359 0.0 0.0 0.00 0.00 0.00 69 1025.1
20220519173043 63 359 0.0 0.0 0.00 0.00 0.00 67 1025.0
20220519171540 64 359 0.0 1.0 0.00 0.00 0.00 63 1024.8
20220519170037 66 359 0.0 0.0 0.00 0.00 0.00 58 1024.5
20220519164534 67 359 0.0 1.0 0.00 0.00 0.00 53 1024.1
20220519163031 68 359 0.0 2.0 0.00 0.00 0.00 44 1023.6
20220519161539 70 359 0.0 2.0 0.00 0.00 0.00 42 1023.2
20220519160026 71 359 0.0 2.0 0.00 0.00 0.00 41 1023.0
20220519154525 72 359 0.0 2.0 0.00 0.00 0.00 40 1022.8
20220519153026 73 359 0.0 1.0 0.00 0.00 0.00 40 1022.8
20220519151523 72 359 0.0 1.0 0.00 0.00 0.00 42 1022.7
20220519150100 73 359 0.0 2.0 0.00 0.00 0.00 45 1022.6
20220519144521 71 359 0.0 3.0 0.00 0.00 0.00 47 1022.5
20220519143024 72 359 0.0 2.0 0.00 0.00 0.00 46 1022.4
20220519141519 74 359 0.0 2.0 0.00 0.00 0.00 44 1022.2
20220519140019 74 359 0.0 5.0 0.00 0.00 0.00 43 1022.3
20220519134521 74 359 0.0 3.0 0.00 0.00 0.00 43 1022.3
20220519133018 73 229 0.0 3.0 0.00 0.00 0.00 43 1022.4
20220519131517 74 359 0.0 2.0 0.00 0.00 0.00 43 1022.3
20220519130018 76 359 0.0 1.0 0.00 0.00 0.00 41 1022.2
20220519124519 75 359 0.0 1.0 0.00 0.00 0.00 42 1022.2
20220519123025 74 359 0.0 2.0 0.00 0.00 0.00 42 1022.1
20220519121514 74 359 0.0 2.0 0.00 0.00 0.00 43 1022.2
20220519120027 74 359 0.0 2.0 0.00 0.00 0.00 42 1022.3
20220519114512 75 359 0.0 2.0 0.00 0.00 0.00 41 1022.1
20220519113012 75 359 0.0 1.0 0.00 0.00 0.00 38 1022.0
20220519111511 75 359 0.0 1.0 0.00 0.00 0.00 34 1022.1
20220519110010 74 359 0.0 2.0 0.00 0.00 0.00 37 1022.2
20220519104509 75 359 0.0 2.0 0.00 0.00 0.00 37 1022.2
20220519103010 74 359 0.0 1.0 0.00 0.00 0.00 29 1022.1
20220519101508 74 359 0.0 2.0 0.00 0.00 0.00 24 1022.1
20220519100006 75 359 0.0 2.0 0.00 0.00 0.00 26 1022.0
20220519094505 74 359 0.0 1.0 0.00 0.00 0.00 26 1022.0
20220519093005 74 359 0.0 1.0 0.00 0.00 0.00 30 1022.1
20220519091602 72 359 0.0 0.0 0.00 0.00 0.00 27 1022.0
20220519090106 72 359 0.0 0.0 0.00 0.00 0.00 27 1021.9
20220519084556 72 359 0.0 0.0 0.00 0.00 0.00 28 1021.8
20220519083055 71 359 0.0 0.0 0.00 0.00 0.00 30 1021.8
20220519081551 71 359 0.0 0.0 0.00 0.00 0.00 31 1021.7
20220519080048 69 359 0.0 4.0 0.00 0.00 0.00 30 1021.5
20220519074546 69 359 0.0 1.0 0.00 0.00 0.00 34 1021.5
20220519073043 68 359 0.0 2.0 0.00 0.00 0.00 33 1021.3
20220519071545 67 359 0.0 2.0 0.00 0.00 0.00 36 1021.3